Weather Roundup
Issued by NWS

Home | Current Version | Previous Version | Graphics & Text | Print | Product List | Glossary Off
Versions: 1 2 3 4 5 6 7 8 9 10 11 12 13 14 15 16 17 18 19 20 21 22 23 24 25 26 27 28 29 30 31 32 33 34 35 36 37 38 39 40 41 42 43 44 45 46 47 48 49 50

000
NZUS93 KARX 171710
HRRWXR

CURRENT HOURLY OBSERVATIONS ACROSS
MUCH OF THE UPPER MISSISSIPPI VALLEY
NATIONAL WEATHER SERVICE LA CROSSE WI
1200 PM CDT WED SEP 17 2014


...SOUTHEAST MINNESOTA...


CITY           SKY/WX    TMP DP  RH WIND       PRES   REMARKS
ROCHESTER      SUNNY     66  50  56 MISG      30.00S
ROCHESTER/MAYO PTSUNNY   67  47  48 S5        29.98S
WINONA         MOSUNNY   66  54  63 CALM      29.98F
AUSTIN         SUNNY     64  54  68 S7        29.98S
ALBERT LEA     MOSUNNY   68  52  56 CALM      29.97S
DODGE CENTER   MOSUNNY   66  54  63 SW5       29.98S
PRESTON        SUNNY     64  55  73 S3        30.00S
OWATONNA       MOSUNNY   66  50  55 CALM      29.97S
FARIBAULT      PTSUNNY   70  48  46 CALM      29.97S
$$

...ELSEWHERE IN MINNESOTA...


CITY           SKY/WX    TMP DP  RH WIND       PRES   REMARKS
MINNEAPOLIS    MOSUNNY   68  50  52 CALM      29.95F
INTNL FALLS    MOSUNNY   52  43  71 NE13      30.02R
DULUTH         MOSUNNY   68  47  46 VRB7      29.94S
RED WING       SUNNY     68  52  56 CALM      29.95F
REDWOOD FALLS  SUNNY     69  55  60 VRB5      29.94S
MANKATO        MOSUNNY   68  50  52 CALM      29.96S
WORTHINGTON    CLOUDY    68  55  64 S3        29.96S
FAIRMONT       SUNNY     70  52  52 W3        29.96S
$$

...SOUTHWEST WISCONSIN...


CITY           SKY/WX    TMP DP  RH WIND       PRES   REMARKS
LA CROSSE      SUNNY     66  52  60 S8        29.99F
PRAIRIE DU CHI CLOUDY    62  49  62 CALM      30.01S
BOSCOBEL       PTSUNNY   66  50  56 VRB5      30.01F
LONE ROCK      MOSUNNY   68  50  52 VRB7      30.01F
PLATTEVILLE    PTSUNNY   66  48  52 W6        30.02F
FORT MC COY    CLOUDY    64  49  57 W5        30.00S
CAMP DOUGLAS   MOSUNNY   66  52  59 SW10      29.99F
VIROQUA        FAIR      64  49  57 W5        30.01S
WIS DELLS      MOSUNNY   65  44  46 SW8       30.00F
$$

...ELSEWHERE IN WISCONSIN...


CITY           SKY/WX    TMP DP  RH WIND       PRES   REMARKS
MILWAUKEE      MOSUNNY   65  43  44 CALM      30.01F
MADISON        PTSUNNY   65  47  52 VRB6      30.01F
GREEN BAY      SUNNY     67  48  50 W9        29.97F
EAU CLAIRE     SUNNY     66  51  58 S7        29.96F
BLACK RVR FLS  FAIR      65  49  55 W7        29.98S
MEDFORD        PTSUNNY   64  50  59 W8        29.97F
WAUSAU         PTSUNNY   66  49  54 W12       29.96S
WIS RAPIDS     CLOUDY    65  48  54 SW10      30.00S
MARSHFIELD     PTSUNNY   65  50  58 W9        29.98S
RICE LAKE      SUNNY     65  51  60 CALM      29.98S
$$

...NORTHEAST IOWA...


CITY           SKY/WX    TMP DP  RH WIND       PRES   REMARKS
WATERLOO       SUNNY     66  50  56 SE3       29.98F
DUBUQUE        PTSUNNY   63  47  55 SW3       30.02S
DECORAH        SUNNY     64  50  59 SW3       29.99F
MASON CITY     SUNNY     68  52  56 CALM      29.99S
CHARLES CITY   SUNNY     66  50  55 VRB3      30.00S
OELWEIN        SUNNY     66  50  55 SW5       30.00F
$$

...ELSEWHERE IN IOWA...


CITY           SKY/WX    TMP DP  RH WIND       PRES   REMARKS
DES MOINES     MOSUNNY   72  59  63 CALM      29.96F
IOWA CITY      CLOUDY    63  55  75 S9        30.01F
FORT DODGE     SUNNY     68  54  60 CALM      29.97F
MARSHALLTOWN   SUNNY     65  55  70 S7        29.98S
CEDAR RAPIDS   MOSUNNY   65  55  70 S8        29.99F
$$

...NORTHERN ILLINOIS...


CITY           SKY/WX    TMP DP  RH WIND       PRES   REMARKS
CHICAGO-OHARE  MOSUNNY   66  44  45 SW7       30.03S
DUPAGE         CLOUDY    65  43  44 VRB3      30.03S
CHICAGO-MIDWAY MOSUNNY   68  46  45 SW6       30.03S
MOLINE         CLOUDY    65  52  62 S6        30.01F
ROCKFORD       CLOUDY    65  46  50 SW6       30.04F
STERLING       CLOUDY    70  54  56 W8        30.02F
PEORIA         PTSUNNY   65  53  65 S8        30.04F
$$

NOTE: "FAIR" INDICATES FEW OR NO CLOUDS BELOW 12,000 FEET WITH NO
SIGNIFICANT WEATHER AND/OR OBSTRUCTIONS TO VISIBILITY. WIND
SPEEDS ARE IN MILES-PER-HOUR.



USA.gov is the U.S. government's official web portal to all federal, state and local government web resources and services.